Regional Weather Roundup
Issued by NWS Upton, NY

Current Version | Previous Version | Text Only | Print | Product List | Glossary On
Versions: 1 2 3 4 5 6 7 8 9 10 11 12 13 14 15 16 17 18 19 20 21 22 23 24 25 26 27
000
ASUS41 KOKX 271809
RWROKX

REGIONAL WEATHER ROUNDUP
NATIONAL WEATHER SERVICE NEW YORK NY
200 PM EDT TUE JUN 27 2017

NOTE: "FAIR" INDICATES FEW OR NO CLOUDS BELOW 12,000 FEET WITH NO
SIGNIFICANT WEATHER AND/OR OBSTRUCTIONS TO VISIBILITY.

NYZ071-072-176-178-NJZ106-104-271900-
NEW YORK CITY METRO AREA

CITY           SKY/WX    TMP DP  RH WIND       PRES   REMARKS
Central Park   SUNNY     76  58  53 MISG      29.97F
Bronx Bot Gard   N/A     75  52  43 W3        29.96F
LaGuardia APRT MOSUNNY   77  56  48 W9G16     29.94F
Kennedy INTL   MOSUNNY   75  59  57 S9        29.97F
Breezy Point     N/A     70 N/A N/A S6          N/A
Newark/Liberty MOSUNNY   77  54  44 SW8       29.95F
Teterboro      MOSUNNY   76  55  48 SW12G20   29.93F
$$

NYZ177-179-078>081-271900-
LONG ISLAND NEW YORK

CITY           SKY/WX    TMP DP  RH WIND       PRES   REMARKS
Jones Beach      N/A     70 N/A N/A S7          N/A
Matinecock PT    N/A    N/A N/A N/A E2          N/A
Farmingdale    NOT AVBL
MacArthur/ISP  PTSUNNY   74  61  63 VRB3      29.95F
Shirley        PTSUNNY   73  64  73 SW8       29.96F
Mt Sinai Harb    N/A    N/A N/A N/A NE7         N/A
Westhampton    CLOUDY    74  63  68 S9        29.98F
East Hampton   FAIR      72  61  69 S8        29.97F
Montauk          N/A     68  61  78 VRB6      30.00F
$$

NYZ052-065-067-271900-
HUDSON VALLEY

CITY           SKY/WX    TMP DP  RH WIND       PRES   REMARKS
White Plains   MOSUNNY   73  57  57 S9        29.94F
Larchmont Harb   N/A     68 N/A N/A E6          N/A
Croton O-T Hud   N/A     73 N/A N/A SE8G15      N/A
Newburgh       MOSUNNY   73  54  49 W12G17    29.96S
Montgomery     CLOUDY    73  55  53 NW6       29.94F
Poughkeepsie   MOSUNNY   76  51  41 SW13G22   29.92F
Albany         MOSUNNY   68  58  70 SE6       29.92F
$$

NJZ001-105-106-008-010-013-015-019>022-104-271900-
NEW JERSEY

CITY           SKY/WX    TMP DP  RH WIND       PRES   REMARKS
Newark/Liberty MOSUNNY   77  54  44 SW8       29.95F
Teterboro      MOSUNNY   76  55  48 SW12G20   29.93F
Caldwell       MOSUNNY   77  55  46 SW8       29.95F
Somerville     PTSUNNY   77  56  48 NW7       29.94F
Linden         FAIR      77  53  42 NW9       29.95F
Perth Amboy      N/A     72 N/A N/A W8          N/A
Sussex         SUNNY     73  52  47 SW7G16    29.96F
Andover          N/A     74  50  42 SW12      29.96F
Trenton        LGT RAIN  73  55  53 W12G20    29.97F
Millville      SUNNY     79  54  41 W13G18    29.98F
Atlantic City  MOSUNNY   81  53  37 W9        29.97F
Wrightstown    SUNNY     77  55  46 SW8       29.94F
Toms River     SUNNY     81  50  33 W9G16     29.97F
Belmar         MOSUNNY   78  54  43 NW8       29.97F
$$

PAZ047>061-062-071-271900-
EASTERN PENNSYLVANIA

CITY           SKY/WX    TMP DP  RH WIND       PRES   REMARKS
Philadelphia   MOSUNNY   77  50  38 W12       29.97F
Allentown      PTSUNNY   76  52  43 W13G21    29.96F
Scranton       PTSUNNY   64  49  57 SW8       29.97S
$$

CTZ002-004>006-009-010-012-RIZ004-006-007-MAZ004-011-015-271900-
SOUTHERN NEW ENGLAND
 IN CT

CITY           SKY/WX    TMP DP  RH WIND       PRES   REMARKS
Bradley INTL   CLOUDY    75  60  59 S16       29.93F THUNDER
Hartford       CLOUDY    76  57  51 S12G20    29.93F THUNDER
Danbury        PTSUNNY   72  56  57 SW9G18    29.95F
Wtrbury/Oxford PTSUNNY   72  54  53 S9G17     29.96F
Bridgeport     SUNNY     73  58  59 SE6       29.96F
Meriden        MOSUNNY   74  55  51 S12G21    29.95F
New Haven      MOSUNNY   72  59  63 SE8       29.97F
Chester        MOCLDY    70  61  73 SE12      29.98F
Groton         CLOUDY    69  63  81 SE12      29.97F
Wilimantic     CLOUDY    74  58  57 S17G25    29.95F

 IN RI

CITY           SKY/WX    TMP DP  RH WIND       PRES   REMARKS
Providence     PTSUNNY   70  61  73 S14       29.99S
Block Island   CLOUDY    68  61  78 S10       30.01S
Westerly       CLOUDY    68  63  84 SE8       30.00F
 IN MA

CITY           SKY/WX    TMP DP  RH WIND       PRES   REMARKS
Boston         LGT RAIN  67  59  75 S7G18     29.96F
Worcester      CLOUDY    69  53  56 SW12      29.95F
Westfield      CLOUDY    69  60  73 S9G18     29.93F
Provincetown   CLOUDY    70  62  76 S10G21    29.99F
Nantucket      CLOUDY    67  63  87 S13       30.01F
$$

ANZ330-335-338-340-345-350-353-355-271900-
COASTAL MARINE OBSERVATIONS


STATION/POSITION TIME  SKY/WX   TEMP    WIND        PRES    VSBY  WAVE
                                AIR SEA DIR/SP/G                  HT/PER
                 (UTC)          (F)     (DEG/KT/KT) (MB)    (MI)  (FT/S)
NY HARB ENTRANCE 1750            66 70   70/  4/  4 1014.8          1/ 8
20 S FIRE ISLAND 1750            69 70  250/  8/ 10 1014.5          2/ 8
GREAT SOUTH BAY  1715            69 76   CALM  /  4   N/A
23 SSW MONTAUK P 1650            68 66              1016.3          2/ 7
15 E BARNEGAT LI 1730               68                N/A           2/ 6
HUDSON CANYON    1750            70 68  180/ 10/ 12 1014.9          2/ 7
KINGS POINT      1730            72 65  260/  7/ 10 1014.4
EXECUTION ROCKS  1745            73     180/  6/  8   N/A
CENTRAL LI SOUND NOT AVBL
EASTERN LI SOUND NOT AVBL
ROBBINS REEF     1724                   160/  7/ 10 1015.3
$$


>>>>>>>>>>>>>>>>>>>>>>>>>>>> KEY <<<<<<<<<<<<<<<<<<<<<<<<<<<
>                                                          <
>     SKY/WX - Sky Condition/Present Weather               <
>     TMP    - Temperature in Fahrenheit                   <
>     DP     - Dew Point in Fahrenheit                     <
>     RH     - Relative Humidity in Percent                <
>     WIND   - Direction (from) and Speed in MPH           <
>     PRES   - Mean Sea Level Pressure (inches of Hg)      <
>     WCI    - Wind Chill Index                            <
>     VSB    - VISIBILITY IN MILES                         <
>     HX     - HEAT INDEX                                  <
>     TC     - TEMPERATURE IN CELSIUS                      <
>     VRB    - VARIABLE WIND DIRECTION                     <
>                                                          <
>>>>>>>>>>>>>>>>>>>>>>>>>>>> KEY <<<<<<<<<<<<<<<<<<<<<<<<<<<




USA.gov is the U.S. government's official web portal to all federal, state and local government web resources and services.